• In Russia
  • List of Countries
  • For 7 days
  • Water Temperature
  • Satellite Maps
  • Weather Map
  • Weather Widgets
  • user-avatar
    Login

    Hourly Weather Salta

    Today, 11 December, Monday

    Time Temperature Precipitation Wind Pressure Humidity
    00:00 +22°C° 0.2 mm 1 mps 652 mmHg 71%
    01:00 +22°C° 0.2 mm 1 mps 652 mmHg 72%
    02:00 +22°C° 0 mm 1 mps 652 mmHg 75%
    03:00 +21°C° 0.2 mm 1 mps 652 mmHg 76%
    04:00 +21°C° 0.2 mm 1 mps 652 mmHg 76%
    05:00 +21°C° 0.2 mm 1 mps 652 mmHg 77%
    06:00 +22°C° 0.1 mm 1 mps 653 mmHg 69%
    07:00 +24°C° 0.1 mm 1 mps 654 mmHg 62%
    08:00 +25°C° 0.1 mm 2 mps 655 mmHg 55%
    09:00 +26°C° 0.1 mm 2 mps 655 mmHg 51%
    10:00 +27°C° 0.1 mm 2 mps 655 mmHg 48%
    11:00 +28°C° 0.1 mm 3 mps 655 mmHg 44%
    12:00 +29°C° 0.4 mm 3 mps 654 mmHg 43%
    13:00 +29°C° 0.4 mm 3 mps 653 mmHg 43%
    14:00 +29°C° 0.4 mm 3 mps 653 mmHg 42%
    15:00 +29°C° 0.4 mm 3 mps 652 mmHg 44%
    16:00 +28°C° 0.4 mm 3 mps 651 mmHg 46%
    17:00 +28°C° 0.4 mm 3 mps 651 mmHg 48%
    18:00 +26°C° 1.1 mm 2 mps 651 mmHg 53%
    19:00 +25°C° 1.1 mm 2 mps 651 mmHg 58%
    20:00 +23°C° 1.1 mm 2 mps 651 mmHg 64%
    21:00 +23°C° 0.5 mm 2 mps 651 mmHg 64%
    22:00 +22°C° 0.5 mm 1 mps 652 mmHg 65%
    23:00 +22°C° 0.5 mm 1 mps 652 mmHg 66%

    Tomorrow, 12 December, Tuesday

    Time Temperature Precipitation Wind Pressure Humidity
    00:00 +22°C° 0 mm 1 mps 652 mmHg 66%
    01:00 +21°C° 0 mm 1 mps 651 mmHg 67%
    02:00 +21°C° 0 mm 1 mps 651 mmHg 67%
    03:00 +20°C° 0 mm 1 mps 650 mmHg 68%
    04:00 +20°C° 0 mm 1 mps 650 mmHg 69%
    05:00 +20°C° 0 mm 1 mps 650 mmHg 70%
    06:00 +22°C° 0 mm 1 mps 651 mmHg 63%
    07:00 +23°C° 0 mm 1 mps 652 mmHg 56%
    08:00 +25°C° 0 mm 2 mps 652 mmHg 50%
    09:00 +27°C° 0 mm 2 mps 652 mmHg 45%
    10:00 +28°C° 0 mm 2 mps 653 mmHg 40%
    11:00 +30°C° 0 mm 3 mps 653 mmHg 35%
    12:00 +31°C° 0 mm 3 mps 652 mmHg 34%
    13:00 +33°C° 0 mm 3 mps 652 mmHg 34%
    14:00 +33°C° 0 mm 4 mps 651 mmHg 33%
    15:00 +33°C° 0.1 mm 4 mps 651 mmHg 34%
    16:00 +33°C° 0.1 mm 4 mps 650 mmHg 36%
    17:00 +32°C° 0.1 mm 4 mps 650 mmHg 37%
    18:00 +29°C° 0.1 mm 3 mps 649 mmHg 44%
    19:00 +27°C° 0.1 mm 2 mps 649 mmHg 50%
    20:00 +24°C° 0.1 mm 1 mps 649 mmHg 57%
    21:00 +24°C° 0 mm 1 mps 649 mmHg 59%
    22:00 +23°C° 0 mm 1 mps 650 mmHg 60%
    23:00 +23°C° 0 mm 1 mps 650 mmHg 62%

    Day after tomorrow, 13 December, Wednesday

    Time Temperature Precipitation Wind Pressure Humidity
    00:00 +23°C° 0 mm 1 mps 650 mmHg 62%
    01:00 +22°C° 0 mm 1 mps 649 mmHg 61%
    02:00 +22°C° 0 mm 1 mps 649 mmHg 61%
    03:00 +22°C° 0 mm 1 mps 649 mmHg 61%
    04:00 +22°C° 0 mm 1 mps 648 mmHg 61%
    05:00 +22°C° 0 mm 1 mps 648 mmHg 62%
    06:00 +24°C° 0 mm 1 mps 649 mmHg 55%
    07:00 +26°C° 0 mm 1 mps 650 mmHg 47%
    08:00 +28°C° 0 mm 1 mps 651 mmHg 40%
    09:00 +30°C° 0 mm 2 mps 652 mmHg 37%
    10:00 +33°C° 0 mm 3 mps 652 mmHg 34%
    11:00 +34°C° 0 mm 3 mps 652 mmHg 31%
    12:00 +35°C° 0 mm 4 mps 652 mmHg 30%
    13:00 +36°C° 0 mm 4 mps 652 mmHg 28%
    14:00 +36°C° 0 mm 4 mps 651 mmHg 27%
    15:00 +36°C° 0 mm 4 mps 651 mmHg 28%
    16:00 +35°C° 0 mm 4 mps 650 mmHg 29%
    17:00 +35°C° 0 mm 4 mps 650 mmHg 30%
    18:00 +31°C° 0 mm 3 mps 650 mmHg 35%
    19:00 +29°C° 0 mm 2 mps 651 mmHg 40%
    20:00 +27°C° 0 mm 1 mps 651 mmHg 45%
    21:00 +26°C° 0 mm 1 mps 651 mmHg 46%
    22:00 +26°C° 0 mm 1 mps 652 mmHg 47%
    23:00 +25°C° 0 mm 1 mps 652 mmHg 48%

    14 December, Thursday

    Time Temperature Precipitation Wind Pressure Humidity
    00:00 +25°C° 0 mm 1 mps 652 mmHg 49%
    01:00 +25°C° 0 mm 1 mps 652 mmHg 49%
    02:00 +24°C° 0 mm 1 mps 651 mmHg 50%
    03:00 +24°C° 0 mm 1 mps 652 mmHg 51%
    04:00 +24°C° 0 mm 1 mps 652 mmHg 53%
    05:00 +23°C° 0 mm 1 mps 652 mmHg 54%
    06:00 +25°C° 0 mm 1 mps 653 mmHg 51%
    07:00 +26°C° 0 mm 1 mps 654 mmHg 48%
    08:00 +28°C° 0 mm 1 mps 655 mmHg 44%
    09:00 +29°C° 0 mm 2 mps 655 mmHg 41%
    10:00 +31°C° 0 mm 2 mps 655 mmHg 37%
    11:00 +34°C° 0 mm 3 mps 655 mmHg 33%
    12:00 +34°C° 0 mm 3 mps 655 mmHg 32%
    13:00 +35°C° 0 mm 3 mps 654 mmHg 31%
    14:00 +35°C° 0 mm 4 mps 654 mmHg 30%
    15:00 +35°C° 0 mm 4 mps 653 mmHg 33%
    16:00 +34°C° 0 mm 4 mps 653 mmHg 35%
    17:00 +33°C° 0 mm 4 mps 652 mmHg 37%
    18:00 +31°C° 0.1 mm 3 mps 653 mmHg 42%
    19:00 +29°C° 0.1 mm 2 mps 653 mmHg 47%
    20:00 +27°C° 0.1 mm 1 mps 653 mmHg 52%
    21:00 +27°C° 0 mm 1 mps 654 mmHg 53%
    22:00 +26°C° 0 mm 1 mps 654 mmHg 54%
    23:00 +26°C° 0 mm 1 mps 654 mmHg 55%

    15 December, Friday

    Time Temperature Precipitation Wind Pressure Humidity
    00:00 +25°C° 0 mm 1 mps 654 mmHg 56%
    01:00 +25°C° 0 mm 1 mps 653 mmHg 56%
    02:00 +24°C° 0 mm 1 mps 653 mmHg 57%
    03:00 +24°C° 0 mm 1 mps 652 mmHg 57%
    04:00 +24°C° 0 mm 1 mps 652 mmHg 57%
    05:00 +24°C° 0 mm 1 mps 652 mmHg 58%
    06:00 +25°C° 0 mm 1 mps 653 mmHg 53%
    07:00 +27°C° 0 mm 1 mps 654 mmHg 49%
    08:00 +28°C° 0 mm 1 mps 654 mmHg 45%
    09:00 +30°C° 0 mm 2 mps 654 mmHg 41%
    10:00 +31°C° 0 mm 3 mps 654 mmHg 38%
    11:00 +34°C° 0 mm 3 mps 654 mmHg 34%
    12:00 +34°C° 0 mm 3 mps 654 mmHg 33%
    13:00 +35°C° 0 mm 4 mps 653 mmHg 31%
    14:00 +36°C° 0 mm 4 mps 652 mmHg 30%
    15:00 +35°C° 0.1 mm 4 mps 652 mmHg 31%
    16:00 +35°C° 0.1 mm 4 mps 651 mmHg 32%
    17:00 +34°C° 0.1 mm 4 mps 650 mmHg 33%
    18:00 +31°C° 0.1 mm 3 mps 650 mmHg 38%
    19:00 +29°C° 0.1 mm 2 mps 650 mmHg 42%
    20:00 +27°C° 0.1 mm 1 mps 650 mmHg 46%
    21:00 +27°C° 0.2 mm 1 mps 651 mmHg 47%
    22:00 +26°C° 0.2 mm 1 mps 651 mmHg 48%
    23:00 +26°C° 0.2 mm 1 mps 651 mmHg 49%

    16 December, Saturday

    Time Temperature Precipitation Wind Pressure Humidity
    00:00 +26°C° 0.1 mm 1 mps 651 mmHg 50%
    01:00 +25°C° 0.1 mm 1 mps 650 mmHg 50%
    02:00 +25°C° 0.1 mm 1 mps 649 mmHg 50%
    03:00 +25°C° 0 mm 1 mps 649 mmHg 51%
    04:00 +25°C° 0 mm 1 mps 649 mmHg 53%
    05:00 +24°C° 0 mm 1 mps 649 mmHg 54%
    06:00 +25°C° 0 mm 1 mps 649 mmHg 52%
    07:00 +26°C° 0 mm 2 mps 650 mmHg 50%
    08:00 +27°C° 0 mm 2 mps 650 mmHg 47%
    09:00 +29°C° 0 mm 3 mps 650 mmHg 43%
    10:00 +31°C° 0 mm 3 mps 650 mmHg 39%
    11:00 +33°C° 0 mm 4 mps 650 mmHg 35%
    12:00 +34°C° 0 mm 4 mps 649 mmHg 34%
    13:00 +35°C° 0 mm 4 mps 649 mmHg 33%
    14:00 +36°C° 0 mm 4 mps 648 mmHg 32%
    15:00 +36°C° 0.1 mm 5 mps 648 mmHg 33%
    16:00 +35°C° 0.1 mm 5 mps 647 mmHg 35%
    17:00 +35°C° 0.1 mm 5 mps 647 mmHg 36%
    18:00 +33°C° 0.5 mm 3 mps 647 mmHg 42%
    19:00 +30°C° 0.5 mm 2 mps 647 mmHg 48%
    20:00 +28°C° 0.5 mm 1 mps 647 mmHg 54%
    21:00 +27°C° 0.8 mm 1 mps 647 mmHg 56%
    22:00 +27°C° 0.8 mm 1 mps 648 mmHg 57%
    23:00 +26°C° 0.8 mm 1 mps 649 mmHg 59%
    Show more